VK5KX Weather Reports


time (UTC)temp
C
wind
direction
speed
KPH
gust
KPH
rain 1hr
cm
rain 24hr
cm
rain mn
cm
humidity
%
barometer
mb
20260505024504 17 139 1.6 8.0 0.00 0.05 0.05 67 1023.9
20260505023008 16 157 0.0 6.4 0.00 0.05 0.05 68 1024.0
20260505021503 16 219 3.2 8.0 0.00 0.08 0.05 70 1024.1
20260505020001 16 182 0.0 8.0 0.00 0.08 0.05 71 1024.2
20260505014609 16 205 0.0 9.7 0.00 0.08 0.05 73 1024.3
20260505013055 15 223 0.0 4.8 0.00 0.08 0.05 81 1024.3
20260505011602 15 158 1.6 4.8 0.00 0.18 0.05 83 1024.1
20260505010049 15 208 0.0 4.8 0.00 0.18 0.05 88 1024.1
20260505004545 14 208 0.0 6.4 0.00 0.18 0.05 91 1024.0
20260505003043 14 172 0.0 1.6 0.00 0.18 0.05 93 1023.8
20260505001542 14 310 0.0 0.0 0.00 0.23 0.05 95 1023.7
20260505000054 14 310 0.0 0.0 0.00 0.23 0.05 95 1023.6
20260504234546 14 310 0.0 0.0 0.00 0.23 0.05 95 1023.6
20260504233055 13 58 0.0 0.0 0.00 0.23 0.05 95 1023.5
20260504231538 13 58 0.0 0.0 0.00 0.23 0.05 95 1023.5
20260504230037 13 58 0.0 0.0 0.00 0.23 0.05 95 1023.4
20260504224537 13 58 0.0 0.0 0.00 0.23 0.05 95 1023.2
20260504223052 13 58 0.0 0.0 0.00 0.23 0.05 95 1023.1
20260504221531 12 58 0.0 0.0 0.03 0.36 0.05 95 1022.9
20260504220028 12 58 0.0 0.0 0.03 0.36 0.05 95 1022.8
20260504214527 12 58 0.0 0.0 0.03 0.36 0.05 95 1022.6
20260504213037 12 58 0.0 0.0 0.03 0.36 0.05 95 1022.5
20260504211529 12 58 0.0 0.0 0.00 0.36 0.05 95 1022.4
20260504210021 12 58 0.0 0.0 0.00 0.36 0.05 95 1022.1
20260504204534 12 58 0.0 0.0 0.00 0.36 0.05 94 1022.0
20260504203022 12 58 0.0 0.0 0.00 0.36 0.05 94 1021.9
20260504201517 12 58 0.0 1.6 0.00 0.43 0.05 94 1021.7
20260504200015 12 58 0.0 3.2 0.00 0.43 0.05 94 1021.7
20260504194514 12 58 0.0 1.6 0.00 0.43 0.05 94 1021.6
20260504193011 12 58 0.0 0.0 0.00 0.43 0.05 94 1021.4
20260504191510 12 58 0.0 0.0 0.00 0.51 0.05 93 1021.3
20260504190010 12 58 0.0 1.6 0.00 0.51 0.05 94 1021.2
20260504184509 13 60 0.0 0.0 0.03 0.51 0.05 94 1021.2
20260504183009 13 60 0.0 0.0 0.03 0.51 0.05 94 1021.1
20260504181513 13 60 0.0 0.0 0.05 0.51 0.05 94 1020.9
20260504180009 13 60 0.0 0.0 0.05 0.51 0.05 94 1021.0
20260504174507 13 60 0.0 0.0 0.03 0.48 0.03 94 1020.9
20260504173006 13 60 0.0 0.0 0.03 0.48 0.03 93 1021.0
20260504171507 13 60 0.0 0.0 0.00 0.61 0.00 94 1021.0
20260504160108 12 60 0.0 0.0 0.00 0.64 0.00 92 1021.0
20260504081510 17 200 1.6 6.4 0.00 0.71 0.69 72 1017.1
20260504044556 19 160 4.8 14.5 0.00 0.71 0.69 65 1015.2
20260504043050 19 125 4.8 22.5 0.00 0.71 0.69 65 1015.0
20260504041546 18 136 6.4 14.5 0.00 0.71 0.69 65 1014.9
20260504040100 18 119 6.4 19.3 0.00 0.71 0.69 67 1015.0
20260504034608 19 188 4.8 14.5 0.00 0.71 0.69 67 1015.0
20260504033040 18 75 4.8 12.9 0.00 0.71 0.69 67 1015.0
20260504031539 18 184 8.0 14.5 0.00 0.71 0.69 69 1015.0
20260504030037 18 204 4.8 14.5 0.00 0.71 0.69 71 1015.1